User: anonymous   Login
Location: Newsoms
(36.6240°N, 77.1250°W)
Time: 06:38:47
(UTC-04:00)
Language:

BREEZE-M DEB (TANK) - Orbit

View from above orbital plane
View from above orbital plane
View from above satellite
View from above satellite

Ground track
Ground track

The orbit data is extracted from the following two-line orbital elements,

1 29649U 06056B   15182.12116454  .00001736  00000-0  50316-3 0  9993
2 29649 049.4993 036.7795 5384380 075.0686 033.6873 04.96883745152024
Epoch (UTC): 01 July 2015 02:54:28
Eccentricity: 0.5384380
inclination: 49.4993°
perigee height: 317 km
apogee height: 15939 km
right ascension of ascending node: 36.7795°
argument of perigee: 75.0686°
revolutions per day: 4.96883745
mean anomaly at epoch: 33.6873°
orbit number at epoch: 15202

The dashed part of the orbit path shows where the satellite is in the earth's shadow,  

DLR